Change the Weather History Date:

Sunday, April 13, 2014

  Actual Average Record
Temperature  
Mean Temperature 68 °F 51 °F  
Max Temperature 80 °F 62 °F 87 °F (1938)
Min Temperature 56 °F 40 °F 22 °F (1975)
Degree Days  
Heating Degree Days 0 15  
Month to date heating degree days 181 213  
Since 1 July heating degree days 5408 4998  
Cooling Degree Days 3 0  
Month to date cooling degree days 3 0  
Year to date cooling degree days 3 0  
Growing Degree Days 17 (Base 50)    
Moisture  
Dew Point 50 °F    
Average Humidity 61    
Maximum Humidity 83    
Minimum Humidity 39    
Precipitation  
Precipitation 0.00 in 0.13 in 1.23 in (1961)
Month to date precipitation 0.91 1.72  
Year to date precipitation 9.76 10.73  
Sea Level Pressure  
Sea Level Pressure 30.07 in    
Wind  
Wind Speed 9 mph (South)    
Max Wind Speed 22 mph    
Max Gust Speed 30 mph    
Visibility 10 miles    
Events      
T = Trace of Precipitation, MM = Missing Value Source: NWS Daily Summary

Daily Weather History Graph

Daily Weather History Graph

Search for Another Location

Airport or City:

Trip Planner

Search our weather history database for the weather conditions in past years. The results will help you decide how hot, cold, wet, or windy it might be!

Date:

Astronomy

Apr. 13, 2014 Rise Set
Actual Time 6:28 AM EDT 7:40 PM EDT
Civil Twilight 6:00 AM EDT 8:08 PM EDT
Nautical Twilight 5:27 AM EDT 8:42 PM EDT
Astronomical Twilight 4:51 AM EDT 9:17 PM EDT
Moon 6:16 PM EDT (4/13) 5:26 AM EDT (4/13)
Length of Visible Light 14h 08m
Length of Day
13h 12m
Waxing Gibbous, 97% of the Moon is Illuminated
Apr 13
Waxing Gibbous
Apr 15
Full
Apr 22
Last Quarter
Apr 29
New
May 6
First Quarter

Hourly Weather History & Observations

Time (EDT) Temp. Dew Point Humidity Pressure Visibility Wind Dir Wind Speed Gust Speed Precip Events Conditions
12:54 AM 57.9 °F 32.0 °F 37% 30.16 in 10.0 mi SSE 8.1 mph - N/A   Scattered Clouds
1:54 AM 57.9 °F 37.0 °F 46% 30.15 in 10.0 mi SE 4.6 mph - N/A   Clear
2:54 AM 57.0 °F 39.9 °F 53% 30.15 in 10.0 mi SSE 6.9 mph - N/A   Scattered Clouds
3:54 AM 57.0 °F 45.0 °F 64% 30.15 in 10.0 mi Calm Calm - N/A   Overcast
4:54 AM 57.0 °F 46.9 °F 69% 30.14 in 10.0 mi Calm Calm - N/A   Clear
5:54 AM 55.9 °F 48.9 °F 77% 30.14 in 10.0 mi SSE 4.6 mph - N/A   Partly Cloudy
6:54 AM 55.9 °F 50.0 °F 80% 30.14 in 9.0 mi SE 4.6 mph - N/A   Overcast
7:54 AM 57.0 °F 51.1 °F 81% 30.14 in 9.0 mi SSE 4.6 mph - N/A   Scattered Clouds
8:54 AM 59.0 °F 51.1 °F 75% 30.15 in 9.0 mi South 4.6 mph - N/A   Partly Cloudy
9:54 AM 62.1 °F 52.0 °F 70% 30.13 in 10.0 mi SSW 8.1 mph - N/A   Scattered Clouds
10:54 AM 66.0 °F 54.0 °F 65% 30.12 in 10.0 mi South 8.1 mph - N/A   Partly Cloudy
11:54 AM 66.9 °F 54.0 °F 63% 30.11 in 10.0 mi South 5.8 mph - N/A   Mostly Cloudy
12:54 PM 72.0 °F 54.0 °F 53% 30.07 in 10.0 mi SW 6.9 mph - N/A   Clear
1:54 PM 79.0 °F 54.0 °F 42% 30.02 in 10.0 mi SW 15.0 mph - N/A   Clear
2:54 PM 79.0 °F 54.0 °F 42% 30.00 in 10.0 mi SSW 16.1 mph - N/A   Clear
3:54 PM 78.1 °F 54.0 °F 43% 29.96 in 10.0 mi South 15.0 mph 26.5 mph N/A   Clear
4:54 PM 78.1 °F 54.0 °F 43% 29.97 in 10.0 mi South 12.7 mph - N/A   Clear
5:54 PM 78.1 °F 53.1 °F 42% 29.98 in 10.0 mi South 18.4 mph 27.6 mph N/A   Clear
6:54 PM 75.9 °F 53.1 °F 45% 29.97 in 10.0 mi South 11.5 mph 21.9 mph N/A   Clear
7:54 PM 73.9 °F 54.0 °F 50% 29.97 in 10.0 mi South 15.0 mph 24.2 mph N/A   Clear
8:54 PM 73.0 °F 55.0 °F 53% 29.99 in 10.0 mi South 12.7 mph 20.7 mph N/A   Clear
9:54 PM 71.1 °F 54.0 °F 55% 29.99 in 10.0 mi South 11.5 mph 24.2 mph N/A   Clear
10:54 PM 70.0 °F 54.0 °F 57% 29.99 in 10.0 mi SSE 10.4 mph 20.7 mph N/A   Clear
11:54 PM 68.0 °F 54.0 °F 61% 29.99 in 10.0 mi South 6.9 mph - N/A   Clear